WS Maaseik 1 Meer informatie WS Maaseik 1


WS Maaseik 2 Meer informatie WS Maaseik 2


Regen radar Meer informatie rain snow radar


Bezoek onze andere website:

Vorige versie
weerstation Maaseik


Bezoek ook eens deze sites:

Weerstation Geleen



Het weer levert geen direct gevaar op.    Er zijn geen waarschuwingen afgegeven.

15 daagse weersverwachting Baar (CH)

  • Overzicht
  • Per uur
  • 15 dagen
  • Extra
  • Vergelijk
  • Kaarten
  • Dagkaart
  • Meer »
  • Info
  • Statistieken
  • Directe link
    Temp 6h Neerslag Wind  
 06:12     20:53    Daglengte: 14:41 Vandaag
14:00
19°
1.7 mm
2
20:00
18°
13.9 mm
2
 06:13     20:51    Daglengte: 14:38 Morgen
02:00
15°
3.1 mm
2
08:00
16°
3.0 mm
4
14:00
21°
 
6
20:00
19°
 
2
 06:14     20:50    Daglengte: 14:36 Zaterdag 07 Aug
02:00
15°
 
2
08:00
16°
 
1
14:00
22°
 
3
20:00
15°
31.9 mm
2
 06:16     20:48    Daglengte: 14:32 Zondag 08 Aug
02:00
14°
50.9 mm
2
08:00
15°
36.7 mm
2
Locatie info
Region: Zug
Latitude: 47.1947°N
Longitude: 8.5263°E
447 masl
Postcode: 6340
Temp/Neerslag /Baro Onweer/Dauwpunt
    Temp Baro 1h Neerslag Dauwpunt Wind UV Bewolking  
 06:12     20:53    Daglengte: 14:41 Vandaag
13:00
19°
1011.7 hPa
48%
16.1°
2
Windvlaag: 2.2 m/s
69%
14:00
19°
1011.1 hPa 1.7 mm
82%
16.2°
2
Windvlaag: 4.1 m/s
44%
15:00
19°
1010.9 hPa 2.4 mm
82%
16.8°
3
Windvlaag: 2.4 m/s
58% warningclass
16:00
19°
1010.6 hPa 3.1 mm
82%
16.4°
3
Windvlaag: 1.5 m/s
51% warningclass
17:00
19°
1010.6 hPa 2.6 mm
81%
16.8°
4
Windvlaag: 1.2 m/s
18%
18:00
19°
1010.5 hPa
80%
15.9°
4
Windvlaag: 2.4 m/s
52%
19:00
18°
1010.4 hPa 2.9 mm
73%
14.9°
3
Windvlaag: 2 m/s
38%
20:00
18°
1010.8 hPa 3.0 mm
80%
14.1°
2
Windvlaag: 0.3 m/s
53%
21:00
17°
1011.1 hPa 3.1 mm
74%
13.1°
2
Windvlaag: -1.9 m/s
35%
22:00
16°
1011.6 hPa
58%
13.0°
2
Windvlaag: -0.9 m/s
23%
23:00
15°
1012.0 hPa
21%
13.2°
2
Windvlaag: 1.8 m/s
14%
 06:13     20:51    Daglengte: 14:38 Morgen
00:00
15°
1011.5 hPa
18%
12.8°
2
Windvlaag: 2.2 m/s
8%
01:00
15°
1011.1 hPa
17%
12.7°
2
Windvlaag: 2.2 m/s
38%
02:00
15°
1010.4 hPa
15%
12.8°
2
Windvlaag: 2.7 m/s
60%
03:00
15°
1010.1 hPa
77%
13.2°
1
Windvlaag: 2.3 m/s
77%
04:00
16°
1009.4 hPa
82%
12.9°
2
Windvlaag: 1.9 m/s
65%
05:00
15°
1009.2 hPa
81%
12.3°
1
Windvlaag: 1.7 m/s
67%
06:00
15°
1009.4 hPa 3.0 mm
82%
12.8°
1
Windvlaag: 2 m/s
81%
07:00
15°
1009.7 hPa
77%
12.8°
1
Windvlaag: 2.6 m/s
61%
08:00
16°
1010.4 hPa
17%
12.9°
4
Windvlaag: 4.7 m/s
36%
09:00
17°
1010.8 hPa
22%
14.0°
3
Windvlaag: 4.4 m/s
61%
10:00
17°
1011.0 hPa
61%
14.5°
4
Windvlaag: 3.6 m/s
57%
11:00
17°
1011.1 hPa
58%
14.7°
5
Windvlaag: 3.2 m/s
21%
12:00
19°
1011.1 hPa
17%
14.6°
5
Windvlaag: 3 m/s
18%
13:00
20°
1010.7 hPa
16%
14.9°
6
Windvlaag: 3.1 m/s
21%
14:00
21°
1010.6 hPa
14%
13.8°
6
Windvlaag: 3 m/s
30%
15:00
21°
1010.3 hPa
14%
14.7°
5
Windvlaag: 2.8 m/s
35%
16:00
21°
1010.2 hPa
14%
14.0°
5
Windvlaag: 2.3 m/s
40%
17:00
21°
1010.1 hPa
14%
14.0°
4
Windvlaag: 1.8 m/s
50%
18:00
21°
1010.2 hPa
14%
14.6°
4
Windvlaag: 2 m/s
42%
19:00
20°
1010.2 hPa
14%
14.2°
3
Windvlaag: 1.9 m/s
36%
20:00
19°
1010.5 hPa
14%
14.5°
2
Windvlaag: -2.4 m/s
49%
21:00
18°
1010.9 hPa
18%
13.7°
2
Windvlaag: -1.2 m/s
49%
22:00
17°
1011.2 hPa
14%
13.1°
2
Windvlaag: -1 m/s
33%
23:00
17°
1011.1 hPa
14%
12.7°
2
Windvlaag: -0.6 m/s
24%
 06:14     20:50    Daglengte: 14:36 Zaterdag 07 Aug
00:00
16°
1010.9 hPa
14%
12.4°
2
Windvlaag: -0.9 m/s
31%
01:00
16°
1010.8 hPa
14%
12.3°
2
Windvlaag: -0.4 m/s
36%
02:00
15°
1010.5 hPa
14%
12.7°
2
Windvlaag: -0.4 m/s
18%
03:00
15°
1010.0 hPa
14%
12.5°
2
Windvlaag: 0.1 m/s
28%
04:00
15°
1009.7 hPa
14%
12.2°
2
Windvlaag: 0.1 m/s
47%
05:00
14°
1009.2 hPa
14%
12.0°
2
Windvlaag: 0.2 m/s
9%
06:00
14°
1009.1 hPa
14%
11.9°
1
Windvlaag: 0.4 m/s
11%
07:00
14°
1008.9 hPa
14%
12.0°
1
Windvlaag: 0.4 m/s
14%
08:00
16°
1008.3 hPa
14%
13.1°
1
Windvlaag: 0.5 m/s
12%
09:00
18°
1008.0 hPa
14%
13.1°
1
Windvlaag: 0.4 m/s
11%
10:00
19°
1007.5 hPa
55%
12.9°
2
Windvlaag: -0.6 m/s
35%
11:00
21°
1006.6 hPa
74%
12.2°
2
Windvlaag: -0.6 m/s
54%
12:00
22°
1005.9 hPa
27%
13.2°
2
Windvlaag: -2.3 m/s
63%
13:00
22°
1006.1 hPa
25%
12.3°
3
Windvlaag: -4.2 m/s
44%
14:00
22°
1006.1 hPa
29%
12.5°
3
Windvlaag: -4.5 m/s
70%
15:00
20°
1006.1 hPa
93%
17.4°
3
Windvlaag: -3 m/s
92%
16:00
19°
1006.0 hPa 5.8 mm
100%
17.3°
3
Windvlaag: -3.2 m/s
98%
17:00
18°
1005.8 hPa 8.0 mm
100%
16.9°
3
Windvlaag: -2 m/s
100%
18:00
17°
1006.1 hPa 5.2 mm
100%
15.3°
2
Windvlaag: -0.6 m/s
100%
19:00
16°
1006.5 hPa 5.5 mm
100%
15.0°
3
Windvlaag: -5.6 m/s
100%
20:00
15°
1007.9 hPa 7.5 mm
100%
14.4°
2
Windvlaag: -4.9 m/s
100%
21:00
15°
1010.3 hPa 12.5 mm
100%
13.7°
3
Windvlaag: 3.6 m/s
98%
22:00
15°
1011.1 hPa 8.3 mm
100%
12.9°
3
Windvlaag: 6.3 m/s
91%
23:00
15°
1010.9 hPa 7.5 mm
100%
11.5°
3
Windvlaag: 6.7 m/s
74%
 06:16     20:48    Daglengte: 14:32 Zondag 08 Aug
00:00
15°
1011.1 hPa 6.5 mm
100%
12.0°
2
Windvlaag: 6.4 m/s
82%
01:00
15°
1011.6 hPa 6.1 mm
100%
11.5°
2
Windvlaag: 4.9 m/s
53%
02:00
14°
1011.6 hPa 10.0 mm
100%
10.9°
2
Windvlaag: 5 m/s
86%
03:00
14°
1011.9 hPa 10.3 mm
92%
12.0°
2
Windvlaag: 5.7 m/s
78%
04:00
14°
1012.0 hPa 10.4 mm
80%
11.8°
2
Windvlaag: 5.1 m/s
76%
05:00
14°
1012.3 hPa 10.3 mm
83%
11.8°
2
Windvlaag: 4.1 m/s
72%
06:00
14°
1012.7 hPa
81%
12.1°
2
Windvlaag: 4.2 m/s
76%
07:00
14°
1013.3 hPa
84%
11.3°
2
Windvlaag: 3.8 m/s
87%
08:00
15°
1013.7 hPa
38%
12.0°
2
Windvlaag: 3.6 m/s
71%
09:00
16°
1014.8 hPa
18%
-35.9°
0
Windvlaag: 0 m/s
81%
Temp/Neerslag /Baro Onweer/Dauwpunt
    Temp Baro Neerslag Dauwpunt Wind Bewolking  
 06:12     20:53    Daglengte: 14:41 Vandaag
14:00
19°
1011.1 hPa 1.7 mm 16.2°
2
44%
17:00
19°
1010.6 hPa 8.1 mm 16.8°
4
18%
20:00
18°
1010.8 hPa 5.9 mm 14.1°
2
53%
23:00
15°
1012.0 hPa 3.1 mm 13.2°
2
14%
 06:13     20:51    Daglengte: 14:38 Morgen
02:00
15°
1010.4 hPa   12.8°
2
60%
05:00
15°
1009.2 hPa   12.3°
1
67%
08:00
16°
1010.4 hPa 3.0 mm 12.9°
4
36%
11:00
17°
1011.1 hPa   14.7°
5
21%
14:00
21°
1010.6 hPa   13.8°
6
30%
17:00
21°
1010.1 hPa   14.0°
4
50%
20:00
19°
1010.5 hPa   14.5°
2
49%
23:00
17°
1011.1 hPa   12.7°
2
24%
 06:14     20:50    Daglengte: 14:36 Zaterdag 07 Aug
02:00
15°
1010.5 hPa   12.7°
2
18%
05:00
14°
1009.2 hPa   12.0°
2
9%
08:00
16°
1008.3 hPa   13.1°
1
12%
11:00
21°
1006.6 hPa   12.2°
2
54%
14:00
22°
1006.1 hPa   12.5°
3
70%
17:00
18°
1005.8 hPa 13.8 mm 16.9°
3
100%
20:00
15°
1007.9 hPa 18.1 mm 14.4°
2
100%
23:00
15°
1010.9 hPa 28.3 mm 11.5°
3
74%
 06:16     20:48    Daglengte: 14:32 Zondag 08 Aug
02:00
14°
1011.6 hPa 22.6 mm 10.9°
2
86%
05:00
14°
1012.3 hPa 31.1 mm 11.8°
2
72%
08:00
15°
1013.7 hPa 30.0 mm 12.0°
2
71%
11:00
17°
1015.2 hPa   15.6°
2
85%
14:00
17°
1015.7 hPa   15.8°
1
88%
17:00
16°
1017.6 hPa 28.5 mm 14.2°
2
1%
20:00
15°
1019.5 hPa 29.2 mm 13.3°
1
1%
23:00
13°
1021.4 hPa 29.2 mm 11.5°
1
0%
 06:17     20:46    Daglengte: 14:29 Maandag 09 Aug
02:00
12°
1021.8 hPa 29.3 mm 11.1°
1
0%
05:00
12°
1021.0 hPa 29.3 mm 11.1°
1
1%
08:00
14°
1021.6 hPa 29.3 mm 12.4°
1
1%
11:00
19°
1022.1 hPa 29.3 mm 13.3°
1
1%
14:00
22°
1021.8 hPa 29.3 mm 10.0°
2
1%
17:00
22°
1022.0 hPa 29.3 mm 10.1°
2
1%
20:00
17°
1023.1 hPa 29.4 mm 13.0°
1
1%
23:00
13°
1025.1 hPa 29.4 mm 11.1°
2
0%
 06:18     20:45    Daglengte: 14:27 Dinsdag 10 Aug
02:00
12°
1025.6 hPa 29.4 mm 10.5°
2
0%
05:00
11°
1025.2 hPa 29.4 mm 9.9°
1
0%
08:00
14°
1025.2 hPa 29.4 mm 11.2°
0
0%
11:00
20°
1023.9 hPa 29.4 mm 12.6°
1
0%
14:00
23°
1022.3 hPa 29.4 mm 12.2°
2
0%
17:00
24°
1021.4 hPa 29.4 mm 12.0°
2
0%
20:00
19°
1021.5 hPa 29.4 mm 14.3°
1
0%
23:00
15°
1022.8 hPa 29.4 mm 12.7°
1
1%
 06:19     20:43    Daglengte: 14:24 Woensdag 11 Aug
02:00
14°
1022.7 hPa 29.4 mm 12.3°
1
0%
05:00
13°
1022.1 hPa 29.4 mm 11.8°
1
0%
08:00
15°
1022.5 hPa 29.4 mm 13.3°
0
0%
11:00
22°
1021.8 hPa 29.4 mm 14.8°
1
0%
14:00
26°
1021.3 hPa 29.4 mm 14.4°
2
0%
17:00
26°
1020.8 hPa 29.4 mm 12.5°
1
0%
20:00
21°
1021.8 hPa 29.4 mm 17.0°
1
0%
23:00
17°
1023.6 hPa 29.4 mm 15.0°
2
1%
 06:21     20:41    Daglengte: 14:20 Donderdag 12 Aug
02:00
16°
1023.4 hPa 29.4 mm 14.0°
1
1%
05:00
16°
1023.1 hPa 29.4 mm 13.6°
1
1%
08:00
18°
1023.6 hPa 29.4 mm 15.1°
0
1%
11:00
24°
1023.0 hPa   16.2°
1
1%
14:00
28°
1022.1 hPa 58.8 mm 15.6°
1
0%
20:00
23°
1021.9 hPa 58.8 mm 17.9°
1
0%
 06:22     20:40    Daglengte: 14:18 Vrijdag 13 Aug
02:00
18°
1023.2 hPa 58.9 mm 15.0°
1
0%
08:00
18°
1022.7 hPa 59.1 mm 16.1°
1
1%
14:00
29°
1019.1 hPa 59.4 mm 17.5°
2
1%
20:00
24°
1018.0 hPa 59.6 mm 20.1°
0
1%
 06:23     20:38    Daglengte: 14:15 Zaterdag 14 Aug
02:00
19°
1017.8 hPa 60.0 mm 16.0°
2
0%
08:00
19°
1016.6 hPa 66.1 mm 17.3°
1
1%
14:00
28°
1014.2 hPa 70.7 mm 17.5°
2
1%
20:00
22°
1013.9 hPa 75.0 mm 20.2°
1
0%
 06:25     20:36    Daglengte: 14:11 Zondag 15 Aug
02:00
18°
1014.6 hPa 78.6 mm 17.1°
2
0%
08:00
17°
1017.3 hPa 0.3 mm 14.4°
0
46%
14:00
23°
1015.4 hPa 1.8 mm 14.8°
2
48%
20:00
19°
1015.6 hPa 1.2 mm 15.5°
1
51%
 06:26     20:35    Daglengte: 14:09 Maandag 16 Aug
02:00
16°
1017.2 hPa 1.5 mm 13.5°
1
53%
08:00
16°
1017.1 hPa 0.6 mm 13.7°
0
57%
14:00
22°
1016.2 hPa 0.6 mm 14.7°
2
54%
20:00
19°
1017.2 hPa 1.2 mm 15.3°
1
55%
 06:27     20:33    Daglengte: 14:06 Dinsdag 17 Aug
02:00
15°
1018.9 hPa 0.7 mm 13.5°
1
55%
08:00
16°
1019.2 hPa 0.7 mm 13.9°
0
50%
14:00
23°
1017.9 hPa 0.6 mm 14.8°
2
44%
20:00
19°
1018.5 hPa 1.3 mm 15.3°
1
47%
 06:29     20:31    Daglengte: 14:02 Woensdag 18 Aug
02:00
15°
1019.6 hPa 1.1 mm 13.3°
1
43%
08:00
16°
1019.5 hPa 0.9 mm 13.7°
1
41%
14:00
23°
1017.7 hPa 0.6 mm 15.0°
2
46%
20:00
19°
1017.8 hPa 2.0 mm 15.3°
1
54%
 06:30     20:29    Daglengte: 13:59 Donderdag 19 Aug
02:00
16°
1019.0 hPa 1.2 mm 13.4°
1
57%
08:00
16°
1018.4 hPa 0.7 mm 13.7°
1
54%
14:00
23°
1016.6 hPa 0.6 mm 14.6°
2
46%
20:00
19°
1017.0 hPa 1.3 mm 14.8°
0
48%
 06:31     20:28    Daglengte: 13:57 Vrijdag 20 Aug
02:00
15°
1018.0 hPa 0.7 mm 12.9°
1
49%
08:00
16°
1017.7 hPa 1.2 mm 13.3°
1
43%
  CAPE Lifted Index Hail Supercell Tornado SRH 3km CL BTM PRES CL TOP PRES Swiss DWD icon SMHI TS
 06:12     20:53    Daglengte: 14:41 Vandaag
13:00 469 J/kg -2.7 K 0 % 0 % 0 % 0 m²/s² 0 0 -2.61 3
14:00 458 J/kg -2.5 K 0 % 0 % 0 % 0 m²/s² 0 0 -1.81 3
15:00 616 J/kg -3.2 K 0 % 0 % 0 % 0 m²/s² 0 0 -2.3 80
16:00 801 J/kg -2.9 K 0 % 0 % 0 % 0 m²/s² 0 0 -2.24 80
17:00 717 J/kg -2.8 K 0 % 0 % 0 % 0 m²/s² 0 0 -1.57 2
18:00 817 J/kg -2.5 K 0 % 0 % 0 % 0 m²/s² 0 0 -1.51 3
19:00 679 J/kg -2.0 K 0 % 0 % 0 % 0 m²/s² 0 0 -0.35 3
20:00 598 J/kg -1.4 K 0 % 0 % 0 % 0 m²/s² 0 0 0.01 80
21:00 383 J/kg -0.6 K 0 % 0 % 0 % 0 m²/s² 0 0 0.87 80
22:00 111 J/kg 0.3 K 0 % 0 % 0 % 0 m²/s² 0 0 2.25 3
23:00 51 J/kg 0.5 K 0 % 0 % 0 % 0 m²/s² 0 0 2.3 2
 06:13     20:51    Daglengte: 14:38 Morgen
00:00 0 J/kg 1.1 K 0 % 0 % 0 % 0 m²/s² 0 0 3.23 3
01:00 0 J/kg 1.6 K 0 % 0 % 0 % 0 m²/s² 0 0 3.01 3
02:00 0 J/kg 1.5 K 0 % 0 % 0 % 0 m²/s² 0 0 2.79 3
03:00 0 J/kg 0.7 K 0 % 0 % 0 % 0 m²/s² 0 0 1.75 61
04:00 0 J/kg 0.4 K 0 % 0 % 0 % 0 m²/s² 0 0 0.7 61
05:00 0 J/kg 0.5 K 0 % 0 % 0 % 0 m²/s² 0 0 1.73 3
06:00 0 J/kg -0.2 K 0 % 0 % 0 % 0 m²/s² 0 0 -0.02 80
07:00 0 J/kg -0.7 K 0 % 0 % 0 % 0 m²/s² 0 0 -0.13 3
08:00 69 J/kg 0.1 K 0 % 0 % 0 % 0 m²/s² 0 0 2.32 2
09:00 231 J/kg -0.5 K 0 % 0 % 0 % 0 m²/s² 0 0 1.51 2
10:00 148 J/kg 0.1 K 0 % 0 % 0 % 0 m²/s² 0 0 3.7 80
11:00 146 J/kg 0.9 K 0 % 0 % 0 % 0 m²/s² 0 0 5.01 3
12:00 105 J/kg 1.8 K 0 % 0 % 0 % 0 m²/s² 0 0 6.24 3
13:00 80 J/kg 2.1 K 0 % 0 % 0 % 0 m²/s² 0 0 6.9 3
14:00 58 J/kg 2.3 K 0 % 0 % 0 % 0 m²/s² 0 0 7.22 3
15:00 45 J/kg 1.9 K 0 % 0 % 0 % 0 m²/s² 0 0 6.58 3
16:00 37 J/kg 1.7 K 0 % 0 % 0 % 0 m²/s² 0 0 6.26 3
17:00 20 J/kg 1.8 K 0 % 0 % 0 % 0 m²/s² 0 0 6.39 3
18:00 7 J/kg 1.7 K 0 % 0 % 0 % 0 m²/s² 0 0 6.29 3
19:00 22 J/kg 1.6 K 0 % 0 % 0 % 0 m²/s² 0 0 6.07 3
20:00 41 J/kg 1.5 K 0 % 0 % 0 % 0 m²/s² 0 0 5.73 3
21:00 43 J/kg 1.8 K 0 % 0 % 0 % 0 m²/s² 0 0 5.64 3
22:00 15 J/kg 2.4 K 0 % 0 % 0 % 0 m²/s² 0 0 6.66 3
23:00 0 J/kg 2.4 K 0 % 0 % 0 % 0 m²/s² 0 0 6.66 3
 06:14     20:50    Daglengte: 14:36 Zaterdag 07 Aug
00:00 0 J/kg 2.2 K 0 % 0 % 0 % 0 m²/s² 0 0 5.74 3
01:00 0 J/kg 2.6 K 0 % 0 % 0 % 0 m²/s² 0 0 5.54 3
02:00 0 J/kg 2.8 K 0 % 0 % 0 % 0 m²/s² 0 0 5.59 3
03:00 0 J/kg 3.3 K 0 % 0 % 0 % 0 m²/s² 0 0 6.33 3
04:00 0 J/kg 3.8 K 0 % 0 % 0 % 0 m²/s² 0 0 6.74 3
05:00 0 J/kg 3.9 K 0 % 0 % 0 % 0 m²/s² 0 0 6.99 2
06:00 0 J/kg 3.0 K 0 % 0 % 0 % 0 m²/s² 0 0 5.94 2
07:00 0 J/kg 2.1 K 0 % 0 % 0 % 0 m²/s² 0 0 4.95 2
08:00 0 J/kg 1.7 K 0 % 0 % 0 % 0 m²/s² 0 0 4.4 2
09:00 0 J/kg 2.1 K 0 % 0 % 0 % 0 m²/s² 0 0 4.44 2
10:00 0 J/kg 2.3 K 0 % 0 % 0 % 0 m²/s² 0 0 4.49 3
11:00 0 J/kg 1.0 K 0 % 0 % 0 % 0 m²/s² 0 0 3.04 3
12:00 20 J/kg 0.7 K 0 % 0 % 0 % 0 m²/s² 0 0 2.26 3
13:00 0 J/kg 1.0 K 0 % 0 % 0 % 0 m²/s² 0 0 1.57 3
14:00 12 J/kg 0.3 K 0 % 0 % 0 % 0 m²/s² 0 0 0.3 3
15:00 6 J/kg 0.5 K 0 % 0 % 0 % 0 m²/s² 0 0 0.89 3
16:00 19 J/kg 1.0 K 0 % 0 % 0 % 0 m²/s² 0 0 1.21 3
17:00 13 J/kg 2.8 K 0 % 0 % 0 % 0 m²/s² 0 0 3.52 3
18:00 25 J/kg 4.0 K 0 % 0 % 0 % 0 m²/s² 0 0 4.3 80
19:00 2 J/kg 3.2 K 0 % 0 % 0 % 0 m²/s² 0 0 3.47 80
20:00 2 J/kg 3.8 K 0 % 0 % 0 % 0 m²/s² 0 0 3.83 80
21:00 0 J/kg 3.8 K 0 % 0 % 0 % 0 m²/s² 0 0 3.8 65
22:00 0 J/kg 4.8 K 0 % 0 % 0 % 0 m²/s² 0 0 5.52 63
23:00 0 J/kg 3.3 K 0 % 0 % 0 % 0 m²/s² 0 0 4.29 63
 06:16     20:48    Daglengte: 14:32 Zondag 08 Aug
00:00 0 J/kg 1.8 K 0 % 0 % 0 % 0 m²/s² 0 0 3.27 61
01:00 0 J/kg 2.2 K 0 % 0 % 0 % 0 m²/s² 0 0 4.12 80
02:00 0 J/kg 2.1 K 0 % 0 % 0 % 0 m²/s² 0 0 3.78 3
03:00 0 J/kg 1.5 K 0 % 0 % 0 % 0 m²/s² 0 0 2.94 2
04:00 0 J/kg 1.5 K 0 % 0 % 0 % 0 m²/s² 0 0 3.96 2
05:00 0 J/kg 2.1 K 0 % 0 % 0 % 0 m²/s² 0 0 5.52 3
06:00 1 J/kg 2.9 K 0 % 0 % 0 % 0 m²/s² 0 0 6.8 3
07:00 0 J/kg 3.4 K 0 % 0 % 0 % 0 m²/s² 0 0 7.09 3
08:00 38 J/kg 2.9 K 0 % 0 % 0 % 0 m²/s² 0 0 6.41 3
09:00 0 J/kg 0.0 K 0 % 0 % 0 % 0 m²/s² 0 0 13.83 3
Temp Baro Wind Neerslag
  EWN Forecast EWN WRFDA DWD ICON FMI HIRLAM MET Norway GFS
 06:12     20:53    Daglengte: 14:41 Vandaag
14:00 19.3° 1011.1 hPa 1.7 m/s 1.7 mm 17.8° 1009.7 hPa 2.0 m/s 12.2 mm 19.1° 1011.2 hPa 2.5 m/s -1.1 mm 19.5° 1011.5 hPa 0.8 m/s 0.0 mm 18.3° 1011.4 hPa 3.5 m/s
17:00 18.8° 1010.6 hPa 3.8 m/s 8.1 mm 17.6° 1008.7 hPa 2.3 m/s 32.4 mm 18.0° 1011.1 hPa 1.4 m/s 2.5 mm 19.3° 1010.6 hPa 4.7 m/s 0.0 mm 18.3° 1011.1 hPa 3.0 m/s
20:00 17.8° 1010.8 hPa 1.8 m/s 5.9 mm 18.1° 1008.7 hPa 0.9 m/s 39.8 mm 16.9° 1011.0 hPa 1.6 m/s 0.5 mm 18.0° 1011.1 hPa 4.1 m/s 0.0 mm 16.5° 1011.1 hPa 1.5 m/s
23:00 15.5° 1012.0 hPa 1.9 m/s 3.1 mm 15.2° 1009.7 hPa 2.9 m/s 42.5 mm 16.5° 1012.2 hPa 0.9 m/s 0.6 mm 15.4° 1012.9 hPa 2.1 m/s 0.0 mm 13.8° 1012.0 hPa 1.8 m/s
 06:13     20:51    Daglengte: 14:38 Morgen
02:00 14.9° 1010.4 hPa 1.8 m/s 0.0 mm 13.9° 1008.4 hPa 2.7 m/s 42.5 mm 16.4° 1010.3 hPa 1.1 m/s 0.0 mm 14.9° 1011.5 hPa 1.7 m/s 0.0 mm 13.1° 1011.3 hPa 1.9 m/s
05:00 14.9° 1009.2 hPa 1.3 m/s 0.0 mm 14.2° 1006.8 hPa 2.5 m/s 42.5 mm 15.0° 1009.6 hPa 1.2 m/s 0.8 mm 15.7° 1009.6 hPa 1.3 m/s 0.0 mm 13.1° 1009.8 hPa 1.6 m/s
08:00 16.1° 1010.4 hPa 3.8 m/s 3.0 mm 17.2° 1007.4 hPa 4.6 m/s 43.0 mm 16.0° 1010.9 hPa 0.9 m/s 0.5 mm 16.7° 1009.8 hPa 3.9 m/s 0.0 mm 14.4° 1010.7 hPa 1.0 m/s
11:00 17.5° 1011.1 hPa 4.6 m/s 0.0 mm 18.4° 1008.8 hPa 4.6 m/s 44.1 mm 17.9° 1011.5 hPa 4.0 m/s 0.2 mm 17.3° 1010.6 hPa 4.6 m/s 0.0 mm 17.5° 1011.7 hPa 1.6 m/s
14:00 20.5° 1010.6 hPa 6.0 m/s 0.0 mm 20.8° 1008.5 hPa 5.9 m/s 44.5 mm 20.7° 1010.7 hPa 6.0 m/s 0.0 mm 19.0° 1010.9 hPa 5.0 m/s 0.0 mm 20.4° 1011.2 hPa 3.0 m/s
17:00 21.1° 1010.1 hPa 4.3 m/s 0.0 mm 21.8° 1007.6 hPa 5.7 m/s 44.5 mm 21.1° 1010.2 hPa 2.9 m/s 0.0 mm 20.2° 1010.3 hPa 4.2 m/s 0.0 mm 22.3° 1009.7 hPa 2.6 m/s
20:00 19.0° 1010.5 hPa 2.3 m/s 0.0 mm 19.3° 1007.8 hPa 1.6 m/s 44.5 mm 20.1° 1010.1 hPa 1.1 m/s 0.0 mm 18.2° 1011.0 hPa 2.7 m/s 0.0 mm 17.9° 1010.4 hPa 1.4 m/s
23:00 16.6° 1011.1 hPa 1.9 m/s 0.0 mm 14.1° 1008.8 hPa 2.6 m/s 44.5 mm 17.2° 1010.6 hPa 1.7 m/s 0.0 mm 16.9° 1012.9 hPa 1.2 m/s 0.0 mm 14.0° 1011.5 hPa 1.5 m/s
 06:14     20:50    Daglengte: 14:36 Zaterdag 07 Aug
02:00 15.4° 1010.5 hPa 1.8 m/s 0.0 mm 13.4° 1007.9 hPa 1.6 m/s 44.5 mm 16.1° 1010.5 hPa 1.4 m/s 0.0 mm 15.8° 1012.4 hPa 2.1 m/s 0.0 mm 14.0° 1010.8 hPa 1.3 m/s
05:00 14.0° 1009.2 hPa 1.5 m/s 0.0 mm 13.0° 1006.7 hPa 0.5 m/s 44.5 mm 14.5° 1008.8 hPa 1.6 m/s 0.0 mm 13.9° 1011.6 hPa 1.7 m/s 0.0 mm 12.8° 1009.7 hPa 1.2 m/s
08:00 15.6° 1008.3 hPa 1.5 m/s 0.0 mm 17.4° 1006.1 hPa 1.6 m/s 44.5 mm 15.5° 1007.8 hPa 1.5 m/s 0.0 mm 15.4° 1010.0 hPa 1.6 m/s 0.0 mm 15.5° 1007.7 hPa 0.7 m/s
11:00 20.7° 1006.6 hPa 1.9 m/s 0.0 mm 22.0° 1004.7 hPa 2.1 m/s 44.5 mm 18.8° 1006.9 hPa 2.4 m/s 0.0 mm 22.1° 1005.0 hPa 1.2 m/s
14:00 21.9° 1006.1 hPa 2.6 m/s 0.0 mm 23.0° 1003.3 hPa 3.1 m/s 44.5 mm 19.9° 1007.0 hPa 2.4 m/s 0.0 mm 24.5° 1004.9 hPa 2.6 m/s
17:00 17.9° 1005.8 hPa 2.7 m/s 13.8 mm 15.2° 1006.5 hPa 2.6 m/s 56.7 mm 17.7° 1005.9 hPa 3.5 m/s 0.5 mm 22.8° 1005.9 hPa 5.4 m/s
20:00 15.2° 1007.9 hPa 2.3 m/s 18.1 mm 14.1° 1007.4 hPa 3.7 m/s 77.3 mm 15.4° 1006.4 hPa 1.6 m/s 2.1 mm 15.7° 1009.5 hPa 0.6 m/s
23:00 14.9° 1010.9 hPa 3.1 m/s 28.3 mm 12.7° 1008.2 hPa 1.6 m/s 89.2 mm 15.8° 1011.2 hPa 3.5 m/s 23.0 mm 14.6° 1012.3 hPa 1.4 m/s
 06:16     20:48    Daglengte: 14:32 Zondag 08 Aug
02:00 14.3° 1011.6 hPa 2.3 m/s 22.6 mm 10.9° 1009.3 hPa 2.9 m/s 89.2 mm 15.6° 1011.9 hPa 0.3 m/s 1.7 mm 14.4° 1013.0 hPa 1.4 m/s
05:00 14.1° 1012.3 hPa 1.8 m/s 31.1 mm 10.7° 1009.9 hPa 3.0 m/s 89.6 mm 15.2° 1012.9 hPa 0.8 m/s 0.1 mm 14.2° 1012.9 hPa 0.9 m/s
08:00 14.6° 1013.7 hPa 1.9 m/s 30.0 mm 14.4° 1011.3 hPa 3.4 m/s 89.6 mm 15.7° 1014.4 hPa 0.3 m/s 0.0 mm 14.6° 1013.5 hPa 0.9 m/s
11:00 16.6° 1015.2 hPa 2.4 m/s 0.0 mm 16.8° 1015.2 hPa 2.7 m/s 0.0 mm 14.8° 1015.0 hPa 0.4 m/s 24.5 mm
14:00 17.3° 1015.7 hPa 1.4 m/s 0.0 mm 17.7° 1015.6 hPa 1.5 m/s 0.0 mm 15.1° 1016.2 hPa 0.9 m/s 26.9 mm
17:00 15.9° 1017.6 hPa 2.3 m/s 28.5 mm 15.9° 1017.6 hPa 2.3 m/s 28.5 mm
20:00 14.9° 1019.5 hPa 0.9 m/s 29.2 mm 14.9° 1019.5 hPa 0.9 m/s 29.2 mm
23:00 12.6° 1021.4 hPa 0.9 m/s 29.2 mm 12.6° 1021.4 hPa 0.9 m/s 29.2 mm
 06:17     20:46    Daglengte: 14:29 Maandag 09 Aug
02:00 12.0° 1021.8 hPa 0.9 m/s 29.3 mm 12.0° 1021.8 hPa 0.9 m/s 29.3 mm
05:00 11.9° 1021.0 hPa 1.0 m/s 29.3 mm 11.9° 1021.0 hPa 1.0 m/s 29.3 mm
08:00 13.6° 1021.6 hPa 0.6 m/s 29.3 mm 13.6° 1021.6 hPa 0.6 m/s 29.3 mm
11:00 19.0° 1022.1 hPa 1.1 m/s 29.3 mm 19.0° 1022.1 hPa 1.1 m/s 29.3 mm
14:00 21.5° 1021.8 hPa 2.1 m/s 29.3 mm 21.5° 1021.8 hPa 2.1 m/s 29.3 mm
17:00 21.5° 1022.0 hPa 2.4 m/s 29.3 mm 21.5° 1022.0 hPa 2.4 m/s 29.3 mm
20:00 17.2° 1023.1 hPa 1.2 m/s 29.4 mm 17.2° 1023.1 hPa 1.2 m/s 29.4 mm
23:00 13.0° 1025.1 hPa 1.8 m/s 29.4 mm 13.0° 1025.1 hPa 1.8 m/s 29.4 mm
 06:18     20:45    Daglengte: 14:27 Dinsdag 10 Aug
02:00 11.9° 1025.6 hPa 1.6 m/s 29.4 mm 11.9° 1025.6 hPa 1.6 m/s 29.4 mm
05:00 11.2° 1025.2 hPa 1.3 m/s 29.4 mm 11.2° 1025.2 hPa 1.3 m/s 29.4 mm
08:00 14.0° 1025.2 hPa 0.3 m/s 29.4 mm 14.0° 1025.2 hPa 0.3 m/s 29.4 mm
11:00 20.3° 1023.9 hPa 1.3 m/s 29.4 mm 20.3° 1023.9 hPa 1.3 m/s 29.4 mm
14:00 23.5° 1022.3 hPa 2.1 m/s 29.4 mm 23.5° 1022.3 hPa 2.1 m/s 29.4 mm
17:00 23.6° 1021.4 hPa 2.0 m/s 29.4 mm 23.6° 1021.4 hPa 2.0 m/s 29.4 mm
20:00 19.0° 1021.5 hPa 0.7 m/s 29.4 mm 19.0° 1021.5 hPa 0.7 m/s 29.4 mm
23:00 15.0° 1022.8 hPa 1.5 m/s 29.4 mm 15.0° 1022.8 hPa 1.5 m/s 29.4 mm
 06:19     20:43    Daglengte: 14:24 Woensdag 11 Aug
02:00 13.6° 1022.7 hPa 1.0 m/s 29.4 mm 13.6° 1022.7 hPa 1.0 m/s 29.4 mm
05:00 12.7° 1022.1 hPa 0.8 m/s 29.4 mm 12.7° 1022.1 hPa 0.8 m/s 29.4 mm
08:00 15.4° 1022.5 hPa 0.3 m/s 29.4 mm 15.4° 1022.5 hPa 0.3 m/s 29.4 mm
11:00 21.8° 1021.8 hPa 1.2 m/s 29.4 mm 21.8° 1021.7 hPa 1.2 m/s 29.4 mm
14:00 25.6° 1021.3 hPa 1.7 m/s 29.4 mm 25.6° 1021.3 hPa 1.7 m/s 29.4 mm
17:00 26.4° 1020.8 hPa 1.5 m/s 29.4 mm 26.4° 1020.8 hPa 1.5 m/s 29.4 mm
20:00 20.7° 1021.8 hPa 0.9 m/s 29.4 mm 20.7° 1021.8 hPa 0.9 m/s 29.4 mm
23:00 17.0° 1023.6 hPa 2.0 m/s 29.4 mm 17.0° 1023.6 hPa 2.0 m/s 29.4 mm
 06:21     20:41    Daglengte: 14:20 Donderdag 12 Aug
02:00 16.4° 1023.4 hPa 1.0 m/s 29.4 mm 16.4° 1023.4 hPa 1.0 m/s 29.4 mm
05:00 15.6° 1023.1 hPa 0.8 m/s 29.4 mm 15.6° 1023.1 hPa 0.8 m/s 29.4 mm
08:00 18.0° 1023.6 hPa 0.0 m/s 29.4 mm 18.0° 1023.6 hPa 0.0 m/s 29.4 mm
11:00 24.0° 1023.0 hPa 1.0 m/s 29.4 mm 24.0° 1023.0 hPa 1.0 m/s 29.4 mm
14:00 27.6° 1022.1 hPa 1.5 m/s 29.4 mm 27.6° 1022.1 hPa 1.5 m/s 29.4 mm
20:00 22.9° 1021.9 hPa 0.9 m/s 29.4 mm 22.9° 1021.9 hPa 0.9 m/s 29.4 mm
 06:22     20:40    Daglengte: 14:18 Vrijdag 13 Aug
02:00 17.7° 1023.2 hPa 1.2 m/s 29.4 mm 17.7° 1023.2 hPa 1.2 m/s 29.4 mm
08:00 18.3° 1022.7 hPa 0.9 m/s 29.7 mm 18.3° 1022.7 hPa 0.9 m/s 29.7 mm
14:00 28.8° 1019.1 hPa 1.5 m/s 29.7 mm 28.8° 1019.1 hPa 1.5 m/s 29.7 mm
20:00 24.1° 1018.0 hPa 0.4 m/s 29.9 mm 24.1° 1018.0 hPa 0.4 m/s 29.9 mm
 06:23     20:38    Daglengte: 14:15 Zaterdag 14 Aug
02:00 18.9° 1017.8 hPa 1.7 m/s 30.0 mm 18.9° 1017.8 hPa 1.7 m/s 30.0 mm
08:00 18.8° 1016.6 hPa 1.4 m/s 34.1 mm 18.8° 1016.6 hPa 1.4 m/s 34.1 mm
14:00 27.6° 1014.2 hPa 1.9 m/s 35.5 mm 27.6° 1014.2 hPa 1.9 m/s 35.5 mm
20:00 21.8° 1013.9 hPa 1.4 m/s 38.9 mm 21.8° 1013.9 hPa 1.4 m/s 38.9 mm
 06:25     20:36    Daglengte: 14:11 Zondag 15 Aug
02:00 17.8° 1014.6 hPa 2.0 m/s 39.4 mm 17.8° 1014.6 hPa 2.0 m/s 39.3 mm
08:00 16.7° 1017.3 hPa 0.5 m/s 0.3 mm
14:00 22.8° 1015.4 hPa 1.9 m/s 1.8 mm
20:00 19.2° 1015.6 hPa 1.0 m/s 1.2 mm
 06:26     20:35    Daglengte: 14:09 Maandag 16 Aug
02:00 15.7° 1017.2 hPa 0.7 m/s 1.5 mm
08:00 16.2° 1017.1 hPa 0.5 m/s 0.6 mm
14:00 22.5° 1016.2 hPa 1.8 m/s 0.6 mm
20:00 18.9° 1017.2 hPa 0.7 m/s 1.2 mm
 06:27     20:33    Daglengte: 14:06 Dinsdag 17 Aug
02:00 15.5° 1018.9 hPa 0.7 m/s 0.7 mm
08:00 16.1° 1019.2 hPa 0.5 m/s 0.7 mm
14:00 22.9° 1017.9 hPa 1.7 m/s 0.6 mm
20:00 19.0° 1018.5 hPa 0.5 m/s 1.3 mm
 06:29     20:31    Daglengte: 14:02 Woensdag 18 Aug
02:00 15.5° 1019.6 hPa 0.9 m/s 1.1 mm
08:00 16.2° 1019.5 hPa 0.6 m/s 0.9 mm
14:00 22.8° 1017.7 hPa 1.6 m/s 0.6 mm
20:00 19.0° 1017.8 hPa 0.6 m/s 2.0 mm
 06:30     20:29    Daglengte: 13:59 Donderdag 19 Aug
02:00 15.8° 1019.0 hPa 0.9 m/s 1.2 mm
08:00 16.2° 1018.4 hPa 0.7 m/s 0.7 mm
14:00 22.9° 1016.6 hPa 1.6 m/s 0.6 mm
20:00 18.7° 1017.0 hPa 0.2 m/s 1.3 mm
 06:31     20:28    Daglengte: 13:57 Vrijdag 20 Aug
02:00 15.3° 1018.0 hPa 1.0 m/s 0.7 mm
08:00 15.8° 1017.7 hPa 0.7 m/s 1.2 mm
FMI Hirlam - 7.5 km EWN WRFDA - 12 km DWD ICON - 7 km GFS - 25 km Basiskaart






























































Updatetijd (Europe/Brussels) Resolutie Lengte Stap
FMI Hirlam 07:00, 13:00, 19:00, 01:00 7.5 km 49h 1h
EWN WRFDA 04:15, 10:15, 16:15, 22:15 12 km 73h 1h
DWD ICON 11:45, 17:45, 23:45, 05:45 7 km 75h 1h
GFS 08:30, 14:30, 20:30, 02:30 25 km 237h 3h
30+ mm
25-30 mm
20-25 mm
15-20 mm
10-15 mm
6-10 mm
4-6 mm
2-4 mm
1-2 mm
0.5-1 mm
0.2-0.5 mm
0.1-0.2 mm
30+ mm
25-30 mm
20-25 mm
15-20 mm
10-15 mm
6-10 mm
4-6 mm
2-4 mm
1-2 mm
0.5-1 mm
0.2-0.5 mm
0.1-0.2 mm
Sneeuwval
Natte sneeuw
Hagel
Vorst
30+ mm
25-30 mm
20-25 mm
15-20 mm
10-15 mm
6-10 mm
4-6 mm
2-4 mm
1-2 mm
0.5-1 mm
0.2-0.5 mm
0.1-0.2 mm
Sneeuwval
Natte sneeuw
Hagel
Vorst
Onweer
50 mm
40 mm
30 mm
26 mm
22 mm
18 mm
14 mm
10 mm
9 mm
8 mm
7 mm
6 mm
5 mm
4.5 mm
4 mm
3.5 mm
3 mm
2.5 mm
2 mm
1.5 mm
1 mm
0.8 mm
0.6 mm
0.4 mm
0.2 mm
0.05 mm
35°
30°
25°
20°
15°
10°
-5°
-10°
-15°
-20°
-25°
-30°
-35°
33> m/s
29 m/s
25 m/s
21 m/s
17 m/s
14 m/s
11 m/s
8 m/s
5 m/s
3 m/s
0 m/s
2600 J/kg
2400 J/kg
2200 J/kg
2000 J/kg
1800 J/kg
1600 J/kg
1400 J/kg
1200 J/kg
1000 J/kg
800 J/kg
600 J/kg
400 J/kg
200 J/kg
70 dBZ
65 dBZ
60 dBZ
55 dBZ
50 dBZ
45 dBZ
40 dBZ
35 dBZ
30 dBZ
25 dBZ
20 dBZ
15 dBZ
10 dBZ
5 dBZ
-1 K
-2 K
-3 K
-4 K
-5 K
-6 K
-7 K
-8 K
-9 K
950 m²/s²
900 m²/s²
850 m²/s²
800 m²/s²
750 m²/s²
700 m²/s²
650 m²/s²
600 m²/s²
550 m²/s²
500 m²/s²
450 m²/s²
400 m²/s²
350 m²/s²
300 m²/s²
250 m²/s²
200 m²/s²
150 m²/s²
100 m²/s²
46 m/s
44 m/s
42 m/s
40 m/s
38 m/s
36 m/s
34 m/s
32 m/s